User: anonymous   Login
Location: Unspecified
(0.0000°N, 0.0000°E)
Time: 09:16:13
(UTC+00:00)
Language:

E-STAR-II - Orbit

View from above orbital plane
View from above orbital plane
View from above satellite
View from above satellite

Ground track
Ground track

The orbit data is extracted from the following two-line orbital elements,

1 41459U 16025D   17086.90259625 +.00002931 +00000-0 +16144-3 0  9991
2 41459 098.1940 119.7686 0176273 201.2576 158.1267 15.02615353050368
Epoch (UTC): 27 March 2017 21:39:44
Eccentricity: 0.0176273
inclination: 98.1940°
perigee height: 436 km
apogee height: 681 km
right ascension of ascending node: 119.7686°
argument of perigee: 201.2576°
revolutions per day: 15.02615353
mean anomaly at epoch: 158.1267°
orbit number at epoch: 5036

The dashed part of the orbit path shows where the satellite is in the earth's shadow,  

DLR